Location: Peterborough
(44.3091°N, 78.3197°W)
Time: 04:40:06
(UTC-04:00)

Tiros 1 despin weight - Pass Details

Date: 31 March 2023
Orbit: 586 x 632 km, 48.2° (Epoch: 08 June)

Event Time Altitude Azimuth Distance (km) Brightness Sun altitude
Rises 21:35:19 0° 269° (W) 2,805 ? -20.5°
Reaches altitude 10° 21:37:38 10° 274° (W) 1,907 ? -20.9°
Maximum altitude 21:41:54 54° 352° (N) 719 ? -21.5°
Enters shadow 21:43:21 36° 48° (NE) 934 ? -21.8°
Drops below altitude 10° 21:46:14 10° 70° (ENE) 1,922 - -22.2°
Sets 21:48:34 0° 75° (ENE) 2,830 - -22.6°
